QZS-2 (QZSS/PRN 184) (42738 NORAD) Tracking and Keplerian Element Data

This shows tracking and keplerian element data for the satellite.

Feedback or suggestion? Click here.




ElementValue
Catalog42738
NameQZS-2 (QZSS/PRN 184)
Epoch Orbit536
Epoch Day319.23004928
Epoch Year2018
RAAN282.4916
Inclination43.9597
Eccentricity0.0726225
Argument of Perigee272.7399
Mean Anonmoly78.9249
Mean Motion1.00249296
Decay Rate-2.33E-06
L11 42738U 17028A 18319.23004928 -.00000233 00000-0 00000+0 0 9990
L22 42738 43.9597 282.4916 0726225 272.7399 78.9249 1.00249296 5364

Live tracking and technical data element details for QZS-2 (QZSS/PRN 184) (NORAD 42738). QZS-2 (QZSS/PRN 184) can be tracked NOW for your location showing map with azimuth and elevation plus other details from your city location.

Track the satellite on the map from your city or location and see movement details for azimuth, elevation, latitude, longitude, range, height, and movement on the map or in text.







IsCatalogInMostPopularTable: catalog: 42738, numindb: 152
Update: records affected: 1



GetName: 42738 QZS-2 (QZSS/PRN 184)

Hit Count: updated at: Fri, 16 Nov 2018 09:22:04 GMT